Location: Elbart
(49.6135°N, 11.9134°E)
Time: 11:04:06
(UTC+00:00)

MOS 1-B Rocket - Pass Details

Date: 09 April 2020
Orbit: 891 x 1605 km, 99.1° (Epoch: 25 May)

Event Time Altitude Azimuth Distance (km) Brightness Sun altitude
Rises 23:31:14 0° 13° (NNE) 3,677 8.1 -32.2°
Reaches altitude 10° 23:33:34 10° 11° (N) 2,789 7.2 -32.2°
Maximum altitude 23:39:47 69° 290° (WNW) 1,188 4.3 -32.1°
Enters shadow 23:39:49 69° 288° (WNW) 1,188 4.3 -32.1°
